Date String (YYYY-MM-DD hh:mm:ss) UTC,Instrument flags,Ambient pressure (hPa),Sample flow (lpm),Bypass flow (lpm),Sample temperature (°C),Ambient temperature (°C),ASC tube jacket temperature (°C),LED temperature (°C),Box temperature (°C),Sample RH (%),Span deviation,Mass concentration (μg/m³),Mass concentration (μg/m³),Mass concentration (μg/m³)
DateTimeUTC,F1_M11,P_M11,Q1_M11,Q2_M11,T1_M11,T2_M11,T3_M11,T4_M11,T5_M11,U1_M11,ZSPAN_M11,X0_M11,X2_M11,X1_M11
2023-02-12 22:00:00,,0824.6,5.01,0.00,22.5,20.6,00.0,31.4,24.2,13.0,0000.0,0009.08,0005.51,0005.20
2023-02-12 22:01:00,,0824.6,5.01,0.00,22.5,20.6,00.0,31.4,24.2,12.9,0000.0,0009.13,0005.46,0005.16
2023-02-12 22:02:00,,0824.7,4.99,0.00,22.4,20.6,00.0,31.4,24.2,12.9,0000.0,0009.24,0005.41,0005.12
2023-02-12 22:03:00,,0824.6,4.97,0.00,22.4,20.7,00.0,31.4,24.2,13.0,0000.0,0009.08,0005.36,0005.08
2023-02-12 22:04:00,,0824.6,4.98,0.00,22.4,20.7,00.0,31.4,24.2,13.1,0000.0,0009.04,0005.33,0005.05
2023-02-12 22:05:00,,0824.7,5.02,0.00,22.4,20.7,00.0,31.4,24.2,12.9,0000.0,0009.19,0005.30,0005.01
2023-02-12 22:06:00,,0824.6,5.02,0.00,22.4,20.7,00.0,31.4,24.2,12.9,0000.0,0009.37,0005.27,0004.98
2023-02-12 22:07:00,,0824.6,5.01,0.00,22.4,20.7,00.0,31.3,24.2,13.1,0000.0,0009.25,0005.20,0004.95
2023-02-12 22:08:00,,0824.6,5.01,0.00,22.4,20.8,00.0,31.3,24.2,13.1,0000.0,0008.44,0005.13,0004.93
2023-02-12 22:09:00,,0824.6,5.00,0.00,22.4,20.7,00.0,31.3,24.2,12.8,0000.0,0008.43,0005.12,0004.90
2023-02-12 22:10:00,,0824.6,4.99,0.00,22.4,20.7,00.0,31.3,24.2,12.9,0000.0,0008.51,0005.13,0004.89
2023-02-12 22:11:00,,0824.6,4.99,0.00,22.4,20.7,00.0,31.3,24.1,13.1,0000.0,0008.52,0005.13,0004.88
2023-02-12 22:12:00,,0824.6,4.97,0.00,22.4,20.7,00.0,31.3,24.2,13.1,0000.0,0008.66,0005.15,0004.89
2023-02-12 22:13:00,,0824.6,5.00,0.00,22.4,20.6,00.0,31.3,24.2,13.6,0000.0,0008.47,0005.15,0004.88
2023-02-12 22:14:00,,0824.7,4.97,0.00,22.4,20.6,00.0,31.3,24.2,13.5,0000.0,0008.96,0005.17,0004.88
2023-02-12 22:15:00,,0824.7,5.00,0.00,22.4,20.7,00.0,31.3,24.2,13.1,0000.0,0009.06,0005.18,0004.86
2023-02-12 22:16:00,,0824.7,5.02,0.00,22.4,20.7,00.0,31.3,24.2,13.7,0000.0,0009.13,0005.22,0004.86
2023-02-12 22:17:00,,0824.6,5.01,0.00,22.4,20.7,00.0,31.3,24.2,13.6,0000.0,0008.96,0005.25,0004.87
2023-02-12 22:18:00,,0824.6,5.01,0.00,22.4,20.6,00.0,31.3,24.2,13.7,0000.0,0009.08,0005.27,0004.88
2023-02-12 22:19:00,,0824.6,4.97,0.00,22.4,20.6,00.0,31.3,24.2,13.9,0000.0,0009.12,0005.29,0004.88
2023-02-12 22:20:00,,0824.8,5.00,0.00,22.4,20.6,00.0,31.3,24.2,13.9,0000.0,0009.06,0005.28,0004.88
2023-02-12 22:21:00,,0824.7,5.03,0.00,22.4,20.6,00.0,31.3,24.2,13.9,0000.0,0008.99,0005.27,0004.88
2023-02-12 22:22:00,,0824.7,4.99,0.00,22.4,20.7,00.0,31.3,24.2,13.6,0000.0,0009.02,0005.27,0004.89
2023-02-12 22:23:00,,0824.7,4.99,0.00,22.3,20.7,00.0,31.3,24.2,13.4,0000.0,0009.10,0005.23,0004.87
2023-02-12 22:24:00,,0824.7,5.00,0.00,22.4,20.7,00.0,31.2,24.2,13.2,0000.0,0009.01,0005.22,0004.87
2023-02-12 22:25:00,,0824.7,5.02,0.00,22.3,20.7,00.0,31.2,24.1,13.3,0000.0,0008.89,0005.23,0004.89
2023-02-12 22:26:00,,0824.7,5.00,0.00,22.3,20.7,00.0,31.2,24.1,13.5,0000.0,0008.93,0005.24,0004.90
2023-02-12 22:27:00,,0824.7,5.02,0.00,22.3,20.7,00.0,31.2,24.1,13.5,0000.0,0008.90,0005.21,0004.89
2023-02-12 22:28:00,,0824.7,5.00,0.00,22.3,20.7,00.0,31.2,24.1,13.5,0000.0,0008.85,0005.19,0004.89
2023-02-12 22:29:00,,0824.7,4.96,0.00,22.3,20.7,00.0,31.2,24.1,13.4,0000.0,0008.77,0005.18,0004.88
2023-02-12 22:30:00,,0824.6,5.00,0.00,22.3,20.7,00.0,31.2,24.1,13.5,0000.0,0008.73,0005.19,0004.91
2023-02-12 22:31:00,,0824.6,5.01,0.00,22.3,20.7,00.0,31.2,24.1,13.6,0000.0,0008.81,0005.23,0004.94
2023-02-12 22:32:00,,0824.6,4.96,0.00,22.3,20.7,00.0,31.2,24.1,13.7,0000.0,0008.98,0005.25,0004.96
2023-02-12 22:33:00,,0824.6,5.01,0.00,22.3,20.7,00.0,31.2,24.1,13.7,0000.0,0009.44,0005.28,0004.98
2023-02-12 22:34:00,,0824.6,4.98,0.00,22.3,20.7,00.0,31.2,24.1,13.8,0000.0,0009.26,0005.33,0005.01
2023-02-12 22:35:00,,0824.6,5.00,0.00,22.3,20.7,00.0,31.2,24.2,13.6,0000.0,0010.04,0005.39,0005.04
2023-02-12 22:36:00,,0824.6,5.01,0.00,22.3,20.7,00.0,31.2,24.1,13.6,0000.0,0009.75,0005.40,0005.05
2023-02-12 22:37:00,,0824.7,4.98,0.00,22.3,20.7,00.0,31.2,24.1,13.6,0000.0,0009.61,0005.38,0005.06
2023-02-12 22:38:00,,0824.7,4.99,0.00,22.3,20.7,00.0,31.2,24.1,13.3,0000.0,0009.64,0005.42,0005.08
2023-02-12 22:39:00,,0824.6,5.02,0.00,22.3,20.7,00.0,31.2,24.1,13.4,0000.0,0009.75,0005.44,0005.10
2023-02-12 22:40:00,,0824.8,4.99,0.00,22.3,20.6,00.0,31.2,24.1,13.4,0000.0,0009.84,0005.47,0005.11
2023-02-12 22:41:00,,0824.7,4.97,0.00,22.3,20.7,00.0,31.2,24.1,13.3,0000.0,0009.92,0005.47,0005.09
2023-02-12 22:42:00,,0824.8,5.04,0.00,22.3,20.7,00.0,31.2,24.1,13.3,0000.0,0009.86,0005.44,0005.08
2023-02-12 22:43:00,,0824.6,5.01,0.00,22.3,20.7,00.0,31.2,24.2,13.3,0000.0,0009.78,0005.42,0005.05
2023-02-12 22:44:00,,0824.7,4.97,0.00,22.3,20.7,00.0,31.2,24.1,13.1,0000.0,0009.34,0005.42,0005.04
2023-02-12 22:45:00,,0824.7,5.00,0.00,22.3,20.7,00.0,31.2,24.1,13.2,0000.0,0009.33,0005.36,0005.01
2023-02-12 22:46:00,,0824.8,5.01,0.00,22.3,20.7,00.0,31.2,24.1,13.2,0000.0,0008.71,0005.33,0004.99
2023-02-12 22:47:00,,0824.7,5.01,0.00,22.3,20.7,00.0,31.2,24.1,13.5,0000.0,0008.55,0005.31,0004.97
2023-02-12 22:48:00,,0824.9,5.00,0.00,22.3,20.7,00.0,31.2,24.1,14.4,0000.0,0008.57,0005.32,0004.96
2023-02-12 22:49:00,,0824.6,4.98,0.00,22.3,20.7,00.0,31.2,24.1,14.5,0000.0,0008.53,0005.30,0004.95
2023-02-12 22:50:00,,0824.5,5.01,0.00,22.3,20.7,00.0,31.2,24.1,14.2,0000.0,0008.42,0005.29,0004.95
2023-02-12 22:51:00,,0824.6,5.01,0.00,22.3,20.7,00.0,31.2,24.1,14.2,0000.0,0008.34,0005.27,0004.94
2023-02-12 22:52:00,,0824.6,5.00,0.00,22.3,20.7,00.0,31.2,24.1,14.2,0000.0,0008.26,0005.24,0004.93
2023-02-12 22:53:00,,0824.6,5.00,0.00,22.3,20.7,00.0,31.2,24.1,14.1,0000.0,0008.25,0005.24,0004.93
2023-02-12 22:54:00,,0824.6,5.02,0.00,22.3,20.7,00.0,31.2,24.1,14.2,0000.0,0008.69,0005.23,0004.92
2023-02-12 22:55:00,,0824.6,5.00,0.00,22.3,20.8,00.0,31.2,24.1,14.4,0000.0,0009.08,0005.20,0004.91
2023-02-12 22:56:00,,0824.6,4.98,0.00,22.3,20.8,00.0,31.2,24.1,14.4,0000.0,0009.06,0005.23,0004.90
2023-02-12 22:57:00,,0824.6,5.01,0.00,22.3,20.9,00.0,31.2,24.2,14.3,0000.0,0009.16,0005.26,0004.89
2023-02-12 22:58:00,,0824.6,4.98,0.00,22.4,21.0,00.0,31.2,24.2,14.3,0000.0,0009.23,0005.25,0004.87
2023-02-12 22:59:00,,0824.7,4.99,0.00,22.4,21.0,00.0,31.2,24.2,14.3,0000.0,0009.58,0005.24,0004.85
